Home > Weather > Stade > Past weeks

Flag for Germany Past Weather in Stade, Lower Saxony, Germany — Yesterday and Last 2 Weeks

Now
63 °F

Partly cloudy.


Feels Like: 63 °F
Forecast: 57 / 68 °F
Wind: 1 mph from North

Location: Hamburg-Fuhlsbuettel

Current Time: Jul 29, 2016 at 4:08:23 AM

Latest Report: Jul 29, 2016 at 3:20 AM


Visibility: N/A

Pressure: 29.83 "Hg

Humidity: 100%

Dew Point: 63 °F

Location of StadeLocation

Past Weather in Stade — Graph

°F

Stade Temperature Yesterday

Maximum temperature yesterday: 75 °F (at 3:50 PM)
Minimum temperature yesterday: 61 °F (at 5:20 AM)
Average temperature yesterday: 67 °F

High & Low Weather Summary for the Past Weeks

 TemperatureHumidityPressure
High84 °F (Jul 21, 3:50 PM)100% (Jul 16, 1:50 AM)30.21 "Hg (Jul 16, 1:50 AM)
Low52 °F (Jul 14, 3:20 AM)42% (Jul 23, 2:20 PM)29.83 "Hg (Jul 29, 2:50 AM)
Average67 °F77%30.05 "Hg
* Reported Jul 14 2:20 AM — Jul 29 2:50 AM, Stade, Weather by CustomWeather, © 2016

Note: Actual official high and low records may vary slightly from our data, if they occured in-between our weather recording intervals... More about our weather records

Advertising

Stade Weather History for the Previous 24 Hours

Scroll right to see more
 ConditionsComfort  
Time TempWeatherWind HumidityBarometerVisibility
2:50 AM
Fri, Jul 29
63 °FPartly cloudy.2 mph100%29.83 "HgN/A
2:20 AM64 °FPartly cloudy.2 mph94%29.86 "HgN/A
1:50 AM64 °FPassing clouds.2 mph94%29.86 "HgN/A
1:20 AM64 °FThundershowers. Passing clouds.3 mph94%29.86 "HgN/A
12:50 AM64 °FThunderstorms. Partly cloudy.2 mph94%29.86 "Hg1 mi
12:20 AM64 °FThundershowers. Partly cloudy.3 mph94%29.86 "HgN/A
11:50 PM
Thu, Jul 28
64 °FLots of rain. Partly cloudy.6 mph94%29.86 "Hg1 mi
11:20 PM64 °FPassing clouds.3 mph100%29.89 "HgN/A
10:50 PM64 °FSprinkles. Passing clouds.1 mph94%29.89 "HgN/A
10:20 PM66 °FSprinkles. Partly sunny.1 mph88%29.89 "HgN/A
9:50 PM66 °FSprinkles. Partly sunny.9 mph88%29.89 "HgN/A
9:20 PM70 °FSprinkles. Partly sunny.10 mph69%29.89 "HgN/A
8:50 PM70 °FPartly sunny.3 mph64%29.89 "HgN/A
8:20 PM70 °FPartly sunny.3 mph64%29.89 "HgN/A
7:50 PM72 °FPartly sunny.3 mph57%29.89 "HgN/A
7:20 PM72 °FBroken clouds.3 mph65%29.89 "HgN/A
6:50 PM72 °FPartly sunny.3 mph65%29.89 "HgN/A
6:20 PM70 °FPartly sunny.5 mph64%29.92 "HgN/A
5:50 PM72 °FSunny.3 mph57%29.92 "Hg10 mi
5:20 PM73 °FPassing clouds.3 mph53%29.92 "HgN/A
4:50 PM73 °FPartly sunny.7 mph50%29.92 "HgN/A
4:20 PM75 °FScattered clouds.3 mph47%29.95 "HgN/A
3:50 PM75 °FPassing clouds.6 mph47%29.95 "HgN/A
3:20 PM72 °FPassing clouds.6 mph53%29.95 "HgN/A
2:50 PM73 °FPassing clouds.6 mph50%29.95 "HgN/A
2:20 PM72 °FPassing clouds.5 mph57%29.98 "HgN/A
1:50 PM72 °FPassing clouds.6 mph57%29.98 "HgN/A
1:20 PM72 °FPassing clouds.6 mph53%29.98 "HgN/A
12:50 PM70 °FScattered clouds.7 mph57%29.98 "HgN/A
12:20 PM70 °FScattered clouds.7 mph57%29.98 "HgN/A
11:50 AM68 °FScattered clouds.6 mph64%29.98 "HgN/A
11:20 AM68 °FScattered clouds.7 mph56%29.98 "HgN/A
10:50 AM66 °FScattered clouds.5 mph68%29.98 "HgN/A
10:20 AM68 °FScattered clouds.5 mph64%29.98 "HgN/A
9:50 AM66 °FBroken clouds.5 mph73%29.98 "HgN/A
9:20 AM64 °FBroken clouds.7 mph78%29.98 "HgN/A
8:50 AM64 °FBroken clouds.6 mph78%29.98 "HgN/A
8:20 AM64 °FScattered clouds.7 mph83%29.98 "HgN/A
7:50 AM63 °FPartly sunny.5 mph88%29.98 "HgN/A
7:20 AM63 °FScattered clouds.6 mph88%29.98 "HgN/A
6:50 AM63 °FScattered clouds.3 mph88%29.95 "HgN/A
6:20 AM61 °FPassing clouds.No wind88%29.95 "HgN/A
5:50 AM61 °FPassing clouds.1 mph88%29.95 "HgN/A
5:20 AM61 °FPassing clouds.6 mph88%29.95 "HgN/A
4:50 AM63 °FPassing clouds.7 mph94%29.95 "HgN/A
4:20 AM63 °FPassing clouds.5 mph94%29.95 "Hg6 mi
Weather by CustomWeather, © 2016

See weather overviewHow to use our weather pages